Weather History for KSUA - November, 2012

Change the Weather History Date:

Wednesday, November 14, 2012

  Actual Average (KVRB) Record (KVRB)
Temperature  
Mean Temperature 72 °F 70 °F  
Max Temperature 78 °F 79 °F 85 °F (2008)
Min Temperature 64 °F 62 °F 40 °F (1975)
Degree Days  
Heating Degree Days 0 1  
Month to date heating degree days 6  
Since 1 July heating degree days 9  
Cooling Degree Days 7 6  
Month to date cooling degree days 100  
Year to date cooling degree days 3228  
Growing Degree Days 22 (Base 50)    
Moisture  
Dew Point 66 °F    
Average Humidity 89    
Maximum Humidity 100    
Minimum Humidity 61    
Precipitation  
Precipitation 0.06 in 0.12 in 3.68 in (1954)
Month to date precipitation 1.69  
Year to date precipitation 48.09  
Sea Level Pressure  
Sea Level Pressure 30.11 in    
Wind  
Wind Speed 3 mph (NW)    
Max Wind Speed 17 mph    
Max Gust Speed 22 mph    
Visibility 9 miles    
Events Rain , Thunderstorm    
T = Trace of Precipitation, MM = Missing Value Source: NWS Daily Summary

Daily Weather History Graph

Daily Weather History Graph

Search for Another Location

Airport or City:

Trip Planner

Search our weather history database for the weather conditions in past years. The results will help you decide how hot, cold, wet, or windy it might be!

Date:

Astronomy

Nov. 14, 2012 Rise Set
Actual Time 6:40 AM EST 5:29 PM EST
Civil Twilight 6:16 AM EST 5:54 PM EST
Nautical Twilight 5:48 AM EST 6:22 PM EST
Astronomical Twilight 5:20 AM EST 6:50 PM EST
Moon 7:23 AM EST (11/14) 6:22 PM EST (11/14)
Length of Visible Light 11h 38m
Length of Day
10h 49m
New Moon, 1% of the Moon is Illuminated
Nov 14
New Moon
Nov 20
First Quarter
Nov 28
Full
Dec 6
Last Quarter
Dec 13
New

Hourly Weather History & Observations

Time (EST) Temp. Dew Point Humidity Pressure Visibility Wind Dir Wind Speed Gust Speed Precip Events Conditions
12:15 AM 73.4 °F 62.6 °F 69% 30.11 in 10.0 mi East 5.8 mph - N/A   Clear
12:35 AM 71.6 °F 60.8 °F 69% 30.11 in 10.0 mi West 4.6 mph - N/A   Clear
12:55 AM 69.8 °F 64.4 °F 83% 30.11 in 10.0 mi WNW 5.8 mph - N/A   Scattered Clouds
1:15 AM 69.8 °F 66.2 °F 88% 30.10 in 10.0 mi NW 4.6 mph - N/A   Scattered Clouds
1:35 AM 68.0 °F 66.2 °F 94% 30.10 in 10.0 mi NW 3.5 mph - N/A   Mostly Cloudy
1:55 AM 69.8 °F 66.2 °F 88% 30.10 in 10.0 mi Calm Calm - N/A   Scattered Clouds
2:15 AM 69.8 °F 68.0 °F 94% 30.09 in 7.0 mi Calm Calm - 0.03 in Rain Light Rain
2:35 AM 69.8 °F 66.2 °F 88% 30.09 in 10.0 mi Calm Calm - 0.03 in   Scattered Clouds
2:55 AM 69.8 °F 66.2 °F 88% 30.09 in 10.0 mi WNW 5.8 mph - 0.03 in   Scattered Clouds
3:15 AM 68.0 °F 66.2 °F 94% 30.09 in 10.0 mi WNW 3.5 mph - N/A   Mostly Cloudy
3:35 AM 68.0 °F 66.2 °F 94% 30.09 in 10.0 mi NW 4.6 mph - N/A   Mostly Cloudy
3:55 AM 68.0 °F 66.2 °F 94% 30.09 in 10.0 mi Calm Calm - N/A   Mostly Cloudy
4:15 AM 68.0 °F 66.2 °F 94% 30.09 in 7.0 mi Calm Calm - N/A Rain Rain
4:35 AM 69.8 °F 66.2 °F 88% 30.09 in 10.0 mi NW 4.6 mph - N/A   Overcast
4:55 AM 69.8 °F 66.2 °F 88% 30.09 in 10.0 mi NNW 4.6 mph - N/A   Overcast
5:15 AM 68.0 °F 64.4 °F 88% 30.09 in 10.0 mi Calm Calm - N/A   Mostly Cloudy
6:47 AM 68.0 °F 66.2 °F 94% 30.11 in 7.0 mi Variable 3.5 mph - N/A   Mostly Cloudy
7:47 AM 68.0 °F 66.2 °F 94% 30.12 in 7.0 mi Calm Calm - N/A   Mostly Cloudy
8:47 AM 77.0 °F 66.2 °F 69% 30.15 in 7.0 mi NE 5.8 mph - N/A   Mostly Cloudy
9:47 AM 78.8 °F 64.4 °F 61% 30.15 in 7.0 mi NE 12.7 mph - N/A   Mostly Cloudy
10:47 AM 78.8 °F 64.4 °F 61% 30.14 in 7.0 mi ENE 9.2 mph - N/A Rain Rain Showers
12:20 PM 73.4 °F 68.0 °F 83% 30.11 in 3.0 mi NNE 17.3 mph 21.9 mph N/A Rain Heavy Rain
12:47 PM 71.6 °F 68.0 °F 88% 30.12 in - Calm Calm - N/A Rain , Thunderstorm Thunderstorms and Rain
1:47 PM 71.6 °F 68.0 °F 88% 30.10 in 5.0 mi Calm Calm - N/A Rain , Thunderstorm Rain
2:47 PM 69.8 °F 68.0 °F 94% 30.11 in 7.0 mi Calm Calm - N/A Rain Light Rain
4:47 PM 71.6 °F 68.0 °F 88% 30.10 in 7.0 mi Variable 4.6 mph - N/A Rain Rain
5:47 PM 71.6 °F 68.0 °F 88% 30.10 in 7.0 mi Calm Calm - N/A   Mostly Cloudy
6:47 PM 71.6 °F 68.0 °F 88% 30.10 in 7.0 mi Calm Calm - N/A   Overcast
7:15 PM 69.8 °F 68.0 °F 94% 30.11 in 10.0 mi Calm Calm - N/A   Mostly Cloudy
7:35 PM 69.8 °F 68.0 °F 94% 30.11 in 5.0 mi Calm Calm - 0.03 in Rain Light Rain
7:55 PM 69.8 °F 68.0 °F 94% 30.11 in 10.0 mi Calm Calm - 0.03 in   Mostly Cloudy
8:15 PM 69.8 °F 68.0 °F 94% 30.12 in 10.0 mi Calm Calm - N/A   Mostly Cloudy
8:35 PM 68.0 °F 68.0 °F 100% 30.12 in 10.0 mi Calm Calm - N/A   Mostly Cloudy
8:55 PM 69.8 °F 68.0 °F 94% 30.12 in 10.0 mi Calm Calm - N/A   Mostly Cloudy
9:35 PM 68.0 °F 68.0 °F 100% 30.13 in 10.0 mi Calm Calm - N/A   Mostly Cloudy
9:55 PM 68.0 °F 66.2 °F 94% 30.13 in 10.0 mi Calm Calm - N/A   Scattered Clouds
10:15 PM 69.8 °F 68.0 °F 94% 30.13 in 10.0 mi West 3.5 mph - N/A   Scattered Clouds
10:35 PM 68.0 °F 66.2 °F 94% 30.12 in 10.0 mi Calm Calm - N/A   Mostly Cloudy
10:55 PM 68.0 °F 64.4 °F 88% 30.13 in 10.0 mi Calm Calm - N/A   Scattered Clouds
11:15 PM 68.0 °F 64.4 °F 88% 30.12 in 10.0 mi West 3.5 mph - N/A   Clear
11:35 PM 66.2 °F 64.4 °F 94% 30.12 in 10.0 mi WNW 3.5 mph - N/A   Clear
11:55 PM 64.4 °F 64.4 °F 100% 30.11 in 7.0 mi Calm Calm - N/A   Clear